GEFSGL_prec_meanprecacc_186.txt.gz
Total_Precipitation_Accumulation
0.95 1.04 1.07 0.85 0.61 0.50 0.48 0.46 0.45 0.47 0.53 0.61 0.57 0.54 0.60 0.65 0.63 0.72 0.83 0.94 1.06 1.16 1.16 1.19 1.26 1.31 1.41 1.47 1.58 1.64 1.68 1.64 1.43 1.27 1.16 1.17 1.18 1.16 1.14 1.06 1.12 1.14 1.02
0.82 0.80 0.65 0.47 0.38 0.35 0.32 0.26 0.22 0.22 0.23 0.30 0.33 0.33 0.42 0.53 0.56 0.62 0.67 0.70 0.80 0.88 0.93 0.98 1.02 1.06 1.17 1.26 1.33 1.41 1.54 1.59 1.49 1.34 1.23 1.18 1.08 1.09 1.24 1.28 1.27 1.18 1.16
0.47 0.44 0.40 0.33 0.30 0.27 0.22 0.20 0.17 0.17 0.17 0.21 0.24 0.27 0.31 0.40 0.52 0.58 0.61 0.59 0.58 0.59 0.63 0.69 0.77 0.84 0.99 1.08 1.12 1.21 1.37 1.40 1.49 1.38 1.33 1.27 1.12 1.06 1.21 1.24 1.31 1.47 1.36
0.29 0.25 0.24 0.24 0.24 0.23 0.23 0.24 0.18 0.15 0.16 0.16 0.15 0.17 0.25 0.35 0.44 0.53 0.57 0.54 0.51 0.52 0.54 0.56 0.60 0.63 0.72 0.83 0.95 1.15 1.32 1.45 1.49 1.42 1.39 1.37 1.30 1.21 1.28 1.37 1.44 1.55 1.57
0.20 0.19 0.20 0.20 0.19 0.18 0.20 0.20 0.17 0.14 0.12 0.08 0.07 0.08 0.17 0.23 0.28 0.42 0.47 0.47 0.49 0.47 0.49 0.54 0.57 0.55 0.56 0.60 0.61 0.79 1.02 1.27 1.37 1.42 1.44 1.47 1.42 1.39 1.33 1.45 1.54 1.65 1.75
0.09 0.09 0.11 0.13 0.14 0.15 0.16 0.15 0.13 0.12 0.10 0.07 0.06 0.06 0.08 0.09 0.16 0.22 0.31 0.42 0.49 0.51 0.52 0.58 0.56 0.52 0.56 0.55 0.54 0.56 0.67 0.84 1.02 1.15 1.24 1.30 1.35 1.46 1.57 1.58 1.55 1.62 1.68
0.06 0.06 0.07 0.07 0.07 0.06 0.05 0.06 0.06 0.06 0.05 0.04 0.04 0.06 0.05 0.05 0.06 0.09 0.20 0.36 0.49 0.50 0.50 0.65 0.71 0.65 0.63 0.66 0.69 0.62 0.56 0.57 0.72 0.91 1.03 1.08 1.16 1.27 1.52 1.56 1.56 1.59 1.51
0.06 0.06 0.06 0.05 0.05 0.04 0.03 0.03 0.03 0.02 0.03 0.04 0.05 0.08 0.05 0.03 0.04 0.05 0.11 0.26 0.40 0.45 0.46 0.59 0.85 0.87 0.76 0.72 0.76 0.87 0.78 0.63 0.61 0.67 0.83 0.95 1.01 1.17 1.50 1.73 1.67 1.45 1.41
0.07 0.07 0.06 0.06 0.07 0.07 0.06 0.05 0.03 0.04 0.04 0.05 0.05 0.07 0.06 0.05 0.05 0.06 0.10 0.20 0.30 0.35 0.39 0.51 0.68 0.83 0.77 0.72 0.72 0.80 0.83 0.73 0.67 0.69 0.66 0.74 0.87 1.05 1.31 1.57 1.68 1.62 1.46
0.07 0.08 0.08 0.07 0.07 0.08 0.08 0.07 0.07 0.07 0.07 0.07 0.06 0.05 0.05 0.04 0.05 0.07 0.08 0.14 0.19 0.19 0.26 0.41 0.57 0.56 0.53 0.60 0.72 0.82 0.90 0.75 0.66 0.75 0.74 0.76 0.79 0.97 1.30 1.52 1.64 1.62 1.50
0.09 0.11 0.12 0.10 0.10 0.14 0.15 0.11 0.09 0.09 0.10 0.10 0.10 0.08 0.08 0.06 0.06 0.08 0.10 0.12 0.14 0.14 0.20 0.33 0.41 0.38 0.38 0.47 0.58 0.71 0.84 0.70 0.72 0.87 0.91 0.89 0.96 1.01 1.12 1.27 1.48 1.59 1.49
0.12 0.13 0.14 0.15 0.15 0.17 0.17 0.15 0.13 0.12 0.12 0.12 0.14 0.15 0.14 0.13 0.10 0.10 0.11 0.14 0.15 0.16 0.21 0.27 0.31 0.27 0.30 0.34 0.39 0.50 0.61 0.69 0.78 0.91 0.98 0.95 0.91 0.97 1.03 1.07 1.18 1.29 1.29
0.15 0.15 0.16 0.17 0.17 0.17 0.18 0.17 0.14 0.12 0.13 0.13 0.15 0.16 0.18 0.17 0.14 0.12 0.11 0.13 0.16 0.17 0.20 0.24 0.25 0.27 0.30 0.31 0.33 0.40 0.55 0.74 0.91 0.92 0.85 0.82 0.85 0.90 0.91 1.03 1.11 1.15 1.18
0.18 0.17 0.17 0.17 0.17 0.17 0.17 0.16 0.15 0.14 0.13 0.13 0.14 0.16 0.16 0.17 0.12 0.11 0.14 0.15 0.16 0.18 0.20 0.21 0.21 0.27 0.30 0.30 0.35 0.47 0.63 0.83 0.91 0.82 0.77 0.68 0.69 0.83 0.89 0.91 0.95 0.97 1.03
0.18 0.17 0.16 0.15 0.15 0.15 0.14 0.14 0.14 0.14 0.14 0.16 0.17 0.18 0.14 0.14 0.16 0.17 0.17 0.16 0.15 0.15 0.19 0.25 0.29 0.36 0.41 0.48 0.58 0.67 0.69 0.73 0.78 0.70 0.74 0.69 0.64 0.72 0.76 0.77 0.78 0.75 0.76
0.15 0.15 0.14 0.13 0.13 0.13 0.13 0.13 0.14 0.16 0.17 0.14 0.14 0.14 0.14 0.12 0.14 0.13 0.15 0.16 0.15 0.15 0.23 0.31 0.39 0.47 0.53 0.61 0.67 0.68 0.68 0.69 0.71 0.68 0.67 0.66 0.60 0.60 0.62 0.64 0.68 0.70 0.74
0.12 0.13 0.13 0.13 0.14 0.15 0.16 0.17 0.15 0.15 0.14 0.12 0.11 0.12 0.12 0.13 0.12 0.12 0.13 0.14 0.15 0.17 0.21 0.32 0.51 0.56 0.55 0.60 0.64 0.63 0.55 0.49 0.50 0.52 0.51 0.49 0.47 0.48 0.52 0.54 0.56 0.62 0.64
0.14 0.18 0.18 0.17 0.18 0.18 0.19 0.18 0.16 0.15 0.16 0.14 0.11 0.10 0.11 0.11 0.12 0.12 0.13 0.14 0.14 0.14 0.16 0.23 0.36 0.41 0.44 0.50 0.50 0.47 0.41 0.34 0.34 0.34 0.34 0.36 0.37 0.39 0.41 0.44 0.45 0.45 0.51
0.14 0.16 0.19 0.20 0.19 0.18 0.18 0.17 0.16 0.15 0.15 0.15 0.14 0.13 0.14 0.13 0.13 0.13 0.13 0.13 0.13 0.15 0.17 0.22 0.26 0.30 0.31 0.30 0.31 0.31 0.31 0.31 0.31 0.31 0.32 0.34 0.35 0.36 0.35 0.35 0.38 0.42 0.43
0.13 0.15 0.16 0.17 0.18 0.18 0.18 0.18 0.19 0.18 0.18 0.18 0.16 0.16 0.17 0.16 0.16 0.15 0.15 0.15 0.16 0.17 0.17 0.18 0.19 0.19 0.20 0.21 0.23 0.26 0.28 0.31 0.32 0.32 0.32 0.33 0.35 0.37 0.36 0.35 0.35 0.36 0.38
0.12 0.14 0.15 0.15 0.15 0.16 0.18 0.19 0.20 0.21 0.22 0.22 0.21 0.21 0.20 0.19 0.19 0.20 0.19 0.19 0.19 0.19 0.18 0.17 0.17 0.18 0.19 0.21 0.25 0.26 0.27 0.31 0.33 0.33 0.35 0.36 0.38 0.39 0.39 0.39 0.38 0.38 0.39
0.13 0.14 0.14 0.14 0.15 0.16 0.17 0.16 0.16 0.16 0.18 0.21 0.22 0.23 0.24 0.23 0.22 0.22 0.22 0.20 0.20 0.20 0.20 0.20 0.19 0.20 0.23 0.24 0.27 0.29 0.30 0.33 0.36 0.37 0.39 0.41 0.43 0.43 0.42 0.42 0.43 0.45 0.45
0.13 0.14 0.14 0.14 0.14 0.16 0.16 0.15 0.17 0.18 0.20 0.21 0.22 0.23 0.24 0.24 0.24 0.23 0.22 0.22 0.22 0.21 0.22 0.22 0.22 0.22 0.24 0.27 0.30 0.34 0.35 0.37 0.43 0.48 0.52 0.51 0.49 0.48 0.46 0.45 0.45 0.48 0.49
0.10 0.11 0.11 0.12 0.13 0.14 0.14 0.13 0.16 0.18 0.20 0.21 0.22 0.23 0.24 0.25 0.26 0.26 0.26 0.24 0.24 0.23 0.23 0.26 0.26 0.26 0.26 0.29 0.33 0.37 0.40 0.42 0.47 0.53 0.58 0.60 0.55 0.51 0.51 0.48 0.47 0.48 0.52
0.08 0.11 0.13 0.15 0.16 0.15 0.15 0.16 0.17 0.18 0.19 0.20 0.21 0.23 0.24 0.25 0.26 0.28 0.29 0.28 0.26 0.25 0.27 0.30 0.32 0.33 0.33 0.34 0.37 0.40 0.47 0.47 0.47 0.50 0.56 0.62 0.61 0.58 0.57 0.55 0.53 0.53 0.55
0.07 0.08 0.12 0.15 0.16 0.16 0.17 0.18 0.19 0.20 0.22 0.22 0.23 0.25 0.26 0.26 0.26 0.27 0.28 0.28 0.26 0.25 0.25 0.28 0.30 0.31 0.32 0.33 0.35 0.41 0.46 0.44 0.44 0.48 0.53 0.58 0.63 0.63 0.63 0.65 0.63 0.62 0.61

GEFSGL_prec_meanprecacc_192.txt.gz
Total_Precipitation_Accumulation
0.97 1.06 1.09 0.87 0.63 0.51 0.49 0.47 0.45 0.47 0.53 0.61 0.57 0.54 0.60 0.66 0.63 0.72 0.83 0.95 1.07 1.16 1.17 1.20 1.27 1.31 1.41 1.47 1.58 1.65 1.68 1.65 1.43 1.28 1.16 1.17 1.18 1.17 1.15 1.07 1.12 1.15 1.03
0.84 0.83 0.68 0.49 0.39 0.36 0.32 0.26 0.22 0.22 0.23 0.30 0.33 0.34 0.42 0.54 0.56 0.62 0.67 0.70 0.80 0.89 0.94 0.99 1.03 1.06 1.18 1.27 1.34 1.42 1.55 1.59 1.49 1.34 1.23 1.18 1.08 1.10 1.25 1.29 1.27 1.19 1.19
0.48 0.46 0.42 0.34 0.31 0.27 0.22 0.20 0.17 0.17 0.17 0.21 0.24 0.27 0.31 0.40 0.52 0.58 0.61 0.59 0.59 0.61 0.65 0.69 0.77 0.85 1.00 1.09 1.12 1.22 1.38 1.41 1.49 1.39 1.34 1.28 1.13 1.06 1.23 1.26 1.31 1.48 1.39
0.31 0.27 0.25 0.25 0.24 0.24 0.23 0.25 0.19 0.15 0.16 0.16 0.15 0.17 0.25 0.36 0.44 0.53 0.57 0.54 0.52 0.53 0.55 0.57 0.61 0.63 0.73 0.85 0.96 1.16 1.33 1.45 1.50 1.43 1.43 1.39 1.31 1.22 1.29 1.38 1.45 1.56 1.59
0.22 0.20 0.21 0.22 0.21 0.19 0.21 0.20 0.18 0.15 0.12 0.09 0.07 0.09 0.17 0.23 0.28 0.42 0.47 0.47 0.50 0.48 0.49 0.55 0.58 0.56 0.57 0.62 0.62 0.80 1.04 1.28 1.37 1.43 1.46 1.48 1.43 1.39 1.34 1.47 1.54 1.66 1.76
0.11 0.11 0.13 0.15 0.15 0.17 0.16 0.16 0.14 0.12 0.10 0.07 0.06 0.06 0.09 0.09 0.16 0.23 0.31 0.43 0.49 0.52 0.53 0.58 0.57 0.53 0.57 0.57 0.55 0.57 0.68 0.85 1.03 1.16 1.25 1.30 1.36 1.47 1.58 1.59 1.56 1.63 1.68
0.09 0.09 0.10 0.10 0.09 0.08 0.07 0.07 0.06 0.06 0.05 0.04 0.05 0.06 0.06 0.05 0.06 0.09 0.20 0.37 0.50 0.51 0.50 0.65 0.72 0.65 0.64 0.67 0.69 0.63 0.57 0.57 0.72 0.92 1.04 1.08 1.16 1.27 1.52 1.57 1.57 1.60 1.52
0.09 0.09 0.08 0.08 0.07 0.06 0.05 0.05 0.03 0.03 0.03 0.04 0.06 0.08 0.06 0.03 0.04 0.05 0.11 0.26 0.41 0.46 0.46 0.60 0.85 0.88 0.77 0.72 0.77 0.87 0.79 0.63 0.62 0.67 0.83 0.96 1.01 1.17 1.51 1.73 1.67 1.46 1.41
0.09 0.09 0.08 0.08 0.08 0.08 0.07 0.05 0.04 0.04 0.04 0.05 0.05 0.08 0.07 0.06 0.05 0.06 0.10 0.20 0.31 0.36 0.39 0.52 0.69 0.84 0.77 0.72 0.72 0.80 0.84 0.73 0.67 0.69 0.66 0.74 0.88 1.05 1.31 1.58 1.69 1.62 1.46
0.08 0.09 0.09 0.08 0.08 0.09 0.08 0.08 0.07 0.07 0.08 0.07 0.06 0.05 0.05 0.04 0.06 0.07 0.09 0.15 0.19 0.19 0.26 0.42 0.57 0.57 0.53 0.60 0.72 0.82 0.91 0.75 0.66 0.75 0.74 0.77 0.79 0.98 1.31 1.52 1.65 1.62 1.50
0.11 0.13 0.13 0.11 0.11 0.15 0.15 0.12 0.09 0.09 0.10 0.10 0.10 0.09 0.08 0.06 0.07 0.08 0.11 0.12 0.15 0.15 0.20 0.34 0.42 0.38 0.38 0.47 0.59 0.71 0.84 0.70 0.72 0.87 0.91 0.89 0.96 1.01 1.13 1.28 1.48 1.59 1.50
0.14 0.15 0.15 0.15 0.16 0.18 0.18 0.16 0.14 0.13 0.13 0.13 0.15 0.15 0.14 0.13 0.11 0.10 0.12 0.14 0.16 0.17 0.22 0.28 0.31 0.28 0.30 0.34 0.39 0.50 0.61 0.69 0.78 0.91 0.98 0.95 0.91 0.97 1.03 1.07 1.18 1.29 1.29
0.17 0.17 0.18 0.19 0.18 0.18 0.19 0.18 0.15 0.14 0.14 0.14 0.16 0.17 0.18 0.18 0.14 0.12 0.13 0.14 0.17 0.18 0.20 0.24 0.26 0.27 0.31 0.32 0.33 0.40 0.55 0.74 0.91 0.92 0.85 0.82 0.86 0.90 0.92 1.03 1.11 1.15 1.18
0.20 0.19 0.19 0.19 0.18 0.18 0.19 0.17 0.16 0.15 0.14 0.14 0.16 0.17 0.17 0.18 0.13 0.12 0.15 0.16 0.17 0.19 0.21 0.22 0.22 0.28 0.31 0.30 0.35 0.47 0.63 0.83 0.91 0.82 0.77 0.68 0.70 0.83 0.90 0.92 0.95 0.98 1.03
0.19 0.19 0.18 0.17 0.17 0.17 0.16 0.15 0.16 0.16 0.16 0.18 0.19 0.20 0.16 0.15 0.18 0.18 0.18 0.16 0.16 0.16 0.20 0.26 0.30 0.37 0.42 0.48 0.59 0.68 0.69 0.73 0.78 0.70 0.74 0.69 0.64 0.72 0.76 0.77 0.79 0.75 0.76
0.16 0.16 0.16 0.14 0.15 0.15 0.15 0.15 0.17 0.19 0.20 0.17 0.17 0.17 0.17 0.14 0.16 0.14 0.16 0.17 0.16 0.17 0.24 0.32 0.40 0.48 0.54 0.62 0.68 0.69 0.68 0.69 0.72 0.68 0.67 0.66 0.60 0.60 0.62 0.64 0.68 0.70 0.74
0.14 0.14 0.14 0.14 0.15 0.17 0.18 0.18 0.17 0.17 0.17 0.14 0.13 0.14 0.14 0.15 0.13 0.13 0.14 0.15 0.16 0.18 0.22 0.32 0.52 0.57 0.56 0.61 0.65 0.64 0.55 0.49 0.50 0.52 0.51 0.49 0.47 0.48 0.52 0.54 0.56 0.62 0.64
0.17 0.21 0.20 0.19 0.20 0.20 0.22 0.20 0.17 0.17 0.18 0.17 0.14 0.12 0.12 0.12 0.13 0.13 0.14 0.14 0.14 0.15 0.16 0.23 0.37 0.42 0.45 0.50 0.51 0.48 0.41 0.34 0.34 0.35 0.35 0.36 0.37 0.39 0.41 0.44 0.45 0.45 0.51
0.16 0.19 0.21 0.22 0.22 0.21 0.20 0.19 0.18 0.17 0.18 0.19 0.18 0.16 0.16 0.15 0.14 0.15 0.15 0.14 0.14 0.15 0.18 0.23 0.27 0.31 0.31 0.31 0.31 0.32 0.31 0.32 0.31 0.31 0.32 0.34 0.35 0.36 0.35 0.35 0.39 0.42 0.43
0.16 0.18 0.18 0.19 0.20 0.22 0.21 0.21 0.23 0.22 0.22 0.22 0.20 0.19 0.19 0.18 0.17 0.16 0.16 0.16 0.17 0.18 0.18 0.19 0.20 0.21 0.21 0.22 0.24 0.27 0.28 0.32 0.33 0.33 0.32 0.33 0.36 0.37 0.36 0.35 0.35 0.36 0.38
0.15 0.16 0.18 0.19 0.18 0.20 0.22 0.23 0.24 0.25 0.26 0.26 0.25 0.26 0.25 0.22 0.22 0.21 0.21 0.20 0.20 0.21 0.20 0.19 0.19 0.19 0.21 0.23 0.27 0.28 0.29 0.32 0.34 0.34 0.35 0.37 0.38 0.40 0.40 0.39 0.38 0.38 0.39
0.19 0.18 0.17 0.17 0.19 0.20 0.21 0.20 0.19 0.19 0.21 0.24 0.26 0.27 0.28 0.26 0.25 0.25 0.25 0.23 0.22 0.22 0.23 0.23 0.23 0.23 0.26 0.27 0.30 0.32 0.32 0.34 0.37 0.39 0.41 0.43 0.45 0.45 0.44 0.44 0.45 0.46 0.46
0.17 0.19 0.19 0.17 0.16 0.19 0.19 0.18 0.20 0.21 0.23 0.24 0.24 0.25 0.26 0.27 0.27 0.26 0.26 0.25 0.25 0.24 0.25 0.26 0.26 0.26 0.27 0.30 0.33 0.36 0.37 0.40 0.46 0.52 0.55 0.54 0.53 0.52 0.50 0.49 0.48 0.51 0.51
0.12 0.13 0.15 0.17 0.16 0.16 0.16 0.16 0.18 0.21 0.22 0.23 0.25 0.26 0.27 0.28 0.28 0.28 0.28 0.27 0.27 0.26 0.27 0.29 0.30 0.29 0.30 0.33 0.36 0.40 0.43 0.46 0.50 0.56 0.62 0.64 0.60 0.55 0.54 0.51 0.49 0.49 0.53
0.10 0.12 0.15 0.17 0.18 0.17 0.17 0.18 0.18 0.19 0.21 0.22 0.23 0.25 0.25 0.26 0.27 0.30 0.31 0.31 0.29 0.29 0.30 0.34 0.36 0.36 0.36 0.37 0.39 0.43 0.49 0.50 0.49 0.52 0.58 0.64 0.62 0.60 0.58 0.56 0.54 0.54 0.56
0.09 0.10 0.13 0.16 0.17 0.17 0.18 0.18 0.20 0.22 0.24 0.24 0.24 0.26 0.27 0.28 0.28 0.29 0.31 0.31 0.30 0.29 0.29 0.31 0.33 0.34 0.34 0.35 0.36 0.42 0.47 0.45 0.46 0.49 0.53 0.59 0.63 0.64 0.64 0.66 0.64 0.64 0.63

GEFSGL_prec_meanprecacc_198.txt.gz
Total_Precipitation_Accumulation
0.99 1.08 1.12 0.91 0.65 0.53 0.52 0.50 0.48 0.49 0.54 0.62 0.57 0.55 0.61 0.66 0.64 0.73 0.84 0.95 1.07 1.17 1.17 1.20 1.27 1.32 1.42 1.49 1.60 1.66 1.70 1.67 1.43 1.28 1.16 1.17 1.19 1.18 1.15 1.07 1.12 1.16 1.05
0.86 0.85 0.70 0.53 0.41 0.38 0.34 0.29 0.24 0.23 0.24 0.31 0.33 0.34 0.42 0.54 0.56 0.63 0.67 0.70 0.81 0.91 0.96 1.01 1.04 1.07 1.19 1.28 1.35 1.43 1.56 1.61 1.50 1.34 1.23 1.18 1.08 1.10 1.25 1.30 1.28 1.20 1.20
0.50 0.48 0.43 0.36 0.33 0.29 0.24 0.21 0.19 0.18 0.17 0.21 0.24 0.27 0.31 0.41 0.52 0.58 0.61 0.60 0.60 0.62 0.66 0.71 0.78 0.85 1.01 1.10 1.13 1.23 1.39 1.42 1.49 1.40 1.34 1.28 1.13 1.06 1.23 1.26 1.32 1.49 1.41
0.32 0.28 0.27 0.26 0.26 0.25 0.24 0.25 0.19 0.16 0.17 0.16 0.15 0.17 0.26 0.36 0.44 0.53 0.57 0.54 0.53 0.54 0.56 0.58 0.61 0.64 0.74 0.86 0.97 1.17 1.34 1.46 1.50 1.44 1.43 1.40 1.32 1.23 1.29 1.39 1.46 1.56 1.60
0.22 0.21 0.22 0.23 0.22 0.20 0.21 0.20 0.18 0.15 0.13 0.09 0.07 0.09 0.17 0.23 0.28 0.42 0.47 0.48 0.51 0.49 0.50 0.56 0.59 0.57 0.59 0.63 0.63 0.81 1.04 1.28 1.38 1.43 1.46 1.49 1.44 1.40 1.35 1.47 1.55 1.67 1.76
0.12 0.11 0.14 0.16 0.16 0.18 0.17 0.16 0.14 0.13 0.11 0.08 0.06 0.07 0.09 0.09 0.16 0.23 0.32 0.43 0.50 0.54 0.54 0.59 0.57 0.53 0.58 0.58 0.56 0.58 0.70 0.87 1.05 1.17 1.26 1.31 1.37 1.48 1.59 1.60 1.57 1.63 1.69
0.10 0.10 0.11 0.11 0.10 0.09 0.08 0.08 0.06 0.07 0.06 0.05 0.05 0.07 0.06 0.05 0.06 0.09 0.21 0.37 0.51 0.52 0.51 0.65 0.72 0.66 0.65 0.68 0.70 0.63 0.58 0.59 0.75 0.96 1.08 1.13 1.20 1.29 1.53 1.58 1.58 1.61 1.53
0.09 0.09 0.09 0.09 0.08 0.07 0.06 0.05 0.04 0.04 0.05 0.05 0.07 0.09 0.06 0.04 0.04 0.05 0.12 0.27 0.41 0.46 0.47 0.60 0.85 0.88 0.77 0.72 0.77 0.87 0.79 0.63 0.63 0.69 0.85 0.99 1.04 1.19 1.52 1.74 1.68 1.47 1.42
0.10 0.09 0.09 0.09 0.09 0.09 0.08 0.07 0.05 0.05 0.06 0.06 0.06 0.08 0.07 0.06 0.06 0.06 0.10 0.21 0.31 0.36 0.40 0.52 0.69 0.84 0.77 0.73 0.73 0.80 0.84 0.74 0.68 0.69 0.67 0.75 0.88 1.06 1.32 1.58 1.69 1.64 1.47
0.09 0.10 0.11 0.09 0.08 0.10 0.09 0.08 0.07 0.09 0.09 0.08 0.07 0.06 0.05 0.05 0.06 0.07 0.09 0.15 0.19 0.19 0.26 0.42 0.57 0.57 0.53 0.60 0.72 0.82 0.91 0.76 0.66 0.75 0.74 0.77 0.80 0.99 1.31 1.52 1.65 1.63 1.51
0.11 0.14 0.15 0.13 0.13 0.16 0.16 0.13 0.10 0.10 0.11 0.11 0.10 0.09 0.08 0.07 0.07 0.08 0.11 0.12 0.15 0.15 0.20 0.34 0.42 0.38 0.38 0.47 0.59 0.71 0.85 0.71 0.73 0.87 0.92 0.89 0.96 1.01 1.13 1.28 1.48 1.59 1.50
0.15 0.16 0.17 0.17 0.18 0.20 0.20 0.17 0.15 0.14 0.14 0.15 0.16 0.16 0.15 0.14 0.11 0.11 0.12 0.15 0.16 0.17 0.22 0.28 0.31 0.28 0.30 0.34 0.39 0.50 0.61 0.69 0.78 0.91 0.98 0.95 0.91 0.97 1.03 1.07 1.18 1.30 1.29
0.17 0.17 0.19 0.20 0.19 0.19 0.20 0.19 0.16 0.14 0.15 0.15 0.17 0.17 0.19 0.18 0.15 0.13 0.13 0.14 0.17 0.18 0.20 0.25 0.26 0.27 0.31 0.32 0.33 0.40 0.55 0.74 0.91 0.92 0.85 0.82 0.86 0.91 0.92 1.03 1.11 1.15 1.18
0.21 0.20 0.19 0.20 0.19 0.19 0.20 0.18 0.16 0.16 0.14 0.15 0.16 0.17 0.17 0.19 0.14 0.13 0.15 0.16 0.17 0.19 0.21 0.23 0.23 0.28 0.32 0.31 0.37 0.48 0.65 0.85 0.93 0.84 0.79 0.70 0.71 0.84 0.90 0.92 0.96 0.98 1.03
0.20 0.20 0.19 0.18 0.17 0.18 0.17 0.17 0.17 0.17 0.18 0.20 0.21 0.22 0.17 0.17 0.20 0.20 0.19 0.17 0.16 0.16 0.20 0.27 0.31 0.37 0.42 0.49 0.60 0.69 0.71 0.74 0.79 0.72 0.75 0.69 0.65 0.72 0.76 0.77 0.79 0.75 0.76
0.17 0.17 0.16 0.15 0.15 0.16 0.16 0.16 0.18 0.20 0.22 0.19 0.19 0.19 0.18 0.16 0.19 0.16 0.17 0.17 0.16 0.17 0.24 0.32 0.40 0.48 0.54 0.63 0.69 0.69 0.69 0.70 0.72 0.69 0.67 0.67 0.61 0.61 0.63 0.64 0.68 0.70 0.74
0.14 0.15 0.15 0.15 0.16 0.18 0.19 0.19 0.18 0.18 0.17 0.15 0.14 0.15 0.15 0.16 0.15 0.15 0.15 0.16 0.16 0.18 0.22 0.33 0.52 0.58 0.56 0.62 0.66 0.65 0.56 0.50 0.51 0.53 0.52 0.50 0.48 0.49 0.52 0.54 0.56 0.62 0.65
0.17 0.21 0.21 0.20 0.21 0.21 0.23 0.21 0.18 0.18 0.19 0.18 0.15 0.14 0.13 0.13 0.14 0.14 0.14 0.15 0.15 0.15 0.17 0.24 0.37 0.42 0.45 0.51 0.51 0.49 0.42 0.35 0.35 0.35 0.35 0.37 0.38 0.40 0.41 0.44 0.45 0.45 0.51
0.17 0.20 0.22 0.22 0.23 0.22 0.21 0.21 0.20 0.18 0.18 0.20 0.20 0.18 0.18 0.16 0.16 0.16 0.16 0.15 0.15 0.16 0.19 0.24 0.28 0.32 0.32 0.32 0.33 0.33 0.32 0.33 0.32 0.32 0.33 0.34 0.35 0.37 0.36 0.35 0.39 0.43 0.43
0.16 0.19 0.19 0.20 0.21 0.23 0.23 0.23 0.24 0.24 0.23 0.23 0.22 0.23 0.23 0.20 0.18 0.18 0.18 0.18 0.19 0.20 0.20 0.21 0.22 0.22 0.23 0.23 0.25 0.28 0.30 0.33 0.34 0.34 0.33 0.34 0.37 0.38 0.38 0.37 0.36 0.37 0.39
0.15 0.17 0.19 0.20 0.20 0.22 0.24 0.25 0.26 0.27 0.28 0.28 0.29 0.30 0.29 0.26 0.25 0.24 0.23 0.22 0.22 0.22 0.21 0.20 0.21 0.22 0.23 0.26 0.29 0.31 0.31 0.34 0.36 0.36 0.37 0.38 0.40 0.41 0.41 0.40 0.39 0.39 0.40
0.20 0.19 0.18 0.18 0.20 0.21 0.23 0.22 0.22 0.22 0.25 0.29 0.31 0.33 0.34 0.30 0.29 0.29 0.28 0.26 0.24 0.24 0.24 0.24 0.24 0.25 0.28 0.30 0.33 0.35 0.36 0.39 0.42 0.43 0.44 0.46 0.47 0.47 0.45 0.46 0.47 0.48 0.48
0.18 0.19 0.19 0.19 0.18 0.21 0.22 0.21 0.23 0.24 0.26 0.28 0.29 0.29 0.30 0.30 0.30 0.30 0.30 0.28 0.28 0.27 0.28 0.28 0.28 0.28 0.30 0.33 0.36 0.40 0.42 0.43 0.50 0.56 0.60 0.59 0.57 0.56 0.54 0.52 0.51 0.53 0.53
0.14 0.15 0.17 0.19 0.19 0.19 0.18 0.18 0.21 0.23 0.24 0.25 0.27 0.28 0.30 0.31 0.31 0.31 0.31 0.29 0.29 0.29 0.30 0.33 0.33 0.32 0.33 0.36 0.40 0.44 0.47 0.50 0.54 0.60 0.66 0.68 0.63 0.59 0.57 0.53 0.50 0.51 0.54
0.13 0.15 0.17 0.20 0.22 0.21 0.20 0.20 0.21 0.22 0.23 0.23 0.25 0.26 0.27 0.28 0.29 0.31 0.33 0.33 0.31 0.31 0.32 0.36 0.38 0.39 0.38 0.39 0.42 0.46 0.53 0.54 0.54 0.56 0.61 0.67 0.65 0.62 0.60 0.58 0.56 0.55 0.58
0.12 0.13 0.16 0.19 0.20 0.21 0.22 0.22 0.23 0.24 0.26 0.25 0.26 0.28 0.29 0.29 0.29 0.30 0.32 0.32 0.31 0.30 0.30 0.32 0.34 0.35 0.36 0.36 0.38 0.44 0.49 0.47 0.48 0.52 0.55 0.61 0.65 0.66 0.66 0.67 0.66 0.65 0.65

GEFSGL_prec_meanprecacc_204.txt.gz
Total_Precipitation_Accumulation
1.00 1.10 1.14 0.94 0.67 0.55 0.54 0.52 0.49 0.51 0.56 0.63 0.59 0.56 0.62 0.67 0.64 0.74 0.85 0.95 1.08 1.17 1.18 1.23 1.31 1.33 1.44 1.51 1.62 1.69 1.73 1.69 1.45 1.29 1.17 1.18 1.19 1.18 1.15 1.07 1.13 1.16 1.05
0.88 0.86 0.71 0.54 0.43 0.39 0.36 0.30 0.26 0.26 0.27 0.33 0.34 0.35 0.43 0.55 0.57 0.64 0.68 0.71 0.82 0.92 0.97 1.03 1.06 1.08 1.21 1.31 1.38 1.47 1.59 1.63 1.51 1.35 1.24 1.18 1.08 1.10 1.26 1.30 1.28 1.20 1.20
0.51 0.49 0.44 0.37 0.35 0.31 0.25 0.23 0.21 0.20 0.21 0.24 0.25 0.28 0.32 0.42 0.53 0.59 0.62 0.60 0.61 0.63 0.67 0.73 0.80 0.87 1.05 1.13 1.17 1.26 1.41 1.44 1.52 1.41 1.35 1.28 1.13 1.07 1.24 1.27 1.33 1.49 1.41
0.32 0.29 0.28 0.27 0.27 0.27 0.25 0.27 0.21 0.18 0.20 0.18 0.16 0.17 0.26 0.37 0.45 0.54 0.58 0.55 0.54 0.55 0.57 0.59 0.62 0.66 0.77 0.90 1.00 1.18 1.34 1.47 1.52 1.45 1.44 1.40 1.33 1.23 1.30 1.40 1.46 1.56 1.60
0.23 0.21 0.23 0.23 0.23 0.21 0.22 0.21 0.19 0.17 0.15 0.10 0.08 0.10 0.18 0.24 0.29 0.43 0.48 0.49 0.52 0.50 0.52 0.57 0.59 0.57 0.60 0.65 0.64 0.83 1.06 1.29 1.39 1.44 1.47 1.50 1.45 1.41 1.35 1.48 1.55 1.67 1.77
0.12 0.12 0.15 0.17 0.17 0.18 0.18 0.16 0.15 0.14 0.12 0.09 0.07 0.08 0.09 0.10 0.18 0.25 0.33 0.44 0.50 0.55 0.56 0.59 0.57 0.54 0.59 0.58 0.56 0.59 0.71 0.88 1.06 1.18 1.27 1.33 1.38 1.49 1.61 1.62 1.58 1.64 1.70
0.11 0.11 0.12 0.12 0.11 0.10 0.08 0.08 0.07 0.08 0.08 0.06 0.06 0.08 0.08 0.07 0.07 0.10 0.22 0.38 0.51 0.54 0.53 0.66 0.73 0.67 0.65 0.68 0.70 0.63 0.58 0.60 0.76 0.97 1.10 1.15 1.22 1.31 1.55 1.59 1.60 1.63 1.54
0.11 0.10 0.10 0.10 0.10 0.08 0.07 0.06 0.05 0.05 0.06 0.07 0.09 0.11 0.08 0.05 0.05 0.06 0.13 0.28 0.43 0.48 0.48 0.62 0.86 0.89 0.78 0.73 0.77 0.87 0.79 0.64 0.63 0.70 0.86 1.00 1.05 1.21 1.53 1.75 1.70 1.49 1.44
0.12 0.11 0.10 0.10 0.11 0.11 0.09 0.08 0.06 0.07 0.08 0.07 0.08 0.10 0.09 0.07 0.06 0.07 0.11 0.22 0.33 0.37 0.41 0.54 0.69 0.84 0.78 0.73 0.73 0.80 0.84 0.74 0.68 0.70 0.67 0.75 0.89 1.06 1.32 1.58 1.70 1.65 1.49
0.10 0.12 0.12 0.11 0.10 0.11 0.11 0.10 0.09 0.11 0.12 0.10 0.09 0.07 0.07 0.05 0.06 0.07 0.09 0.16 0.21 0.21 0.27 0.43 0.59 0.58 0.54 0.60 0.72 0.82 0.92 0.76 0.66 0.75 0.75 0.77 0.80 0.99 1.32 1.53 1.66 1.64 1.52
0.12 0.15 0.17 0.15 0.14 0.17 0.17 0.14 0.11 0.11 0.13 0.13 0.13 0.11 0.10 0.08 0.08 0.09 0.11 0.13 0.17 0.16 0.21 0.34 0.42 0.39 0.38 0.47 0.59 0.71 0.85 0.71 0.73 0.87 0.92 0.90 0.97 1.02 1.13 1.28 1.49 1.60 1.52
0.15 0.17 0.18 0.19 0.19 0.21 0.21 0.19 0.16 0.16 0.18 0.19 0.19 0.18 0.17 0.16 0.12 0.12 0.14 0.16 0.18 0.18 0.23 0.28 0.32 0.28 0.30 0.34 0.39 0.50 0.61 0.69 0.78 0.91 0.99 0.95 0.92 0.97 1.03 1.08 1.19 1.30 1.30
0.18 0.18 0.19 0.21 0.20 0.20 0.21 0.20 0.17 0.16 0.17 0.19 0.20 0.20 0.21 0.20 0.16 0.15 0.14 0.15 0.18 0.20 0.22 0.26 0.27 0.28 0.31 0.32 0.33 0.40 0.55 0.74 0.92 0.93 0.85 0.82 0.86 0.91 0.93 1.04 1.12 1.16 1.19
0.21 0.21 0.20 0.20 0.20 0.20 0.21 0.19 0.17 0.17 0.16 0.17 0.19 0.20 0.19 0.20 0.15 0.14 0.17 0.17 0.18 0.20 0.22 0.23 0.24 0.29 0.32 0.31 0.37 0.49 0.65 0.85 0.93 0.86 0.81 0.71 0.72 0.85 0.91 0.93 0.96 0.98 1.04
0.20 0.21 0.21 0.19 0.18 0.19 0.18 0.19 0.20 0.18 0.19 0.22 0.23 0.24 0.20 0.19 0.21 0.22 0.21 0.19 0.17 0.17 0.21 0.27 0.31 0.37 0.43 0.50 0.60 0.69 0.71 0.75 0.80 0.73 0.77 0.70 0.65 0.72 0.77 0.77 0.79 0.76 0.77
0.18 0.18 0.18 0.17 0.17 0.17 0.17 0.18 0.22 0.25 0.26 0.22 0.21 0.21 0.20 0.18 0.22 0.19 0.19 0.19 0.18 0.18 0.25 0.32 0.40 0.48 0.55 0.63 0.69 0.70 0.69 0.70 0.73 0.69 0.68 0.67 0.62 0.62 0.64 0.65 0.69 0.72 0.75
0.14 0.16 0.16 0.17 0.17 0.19 0.20 0.21 0.20 0.21 0.21 0.18 0.17 0.17 0.17 0.18 0.17 0.17 0.16 0.17 0.18 0.19 0.23 0.33 0.52 0.58 0.57 0.62 0.67 0.66 0.57 0.51 0.52 0.54 0.53 0.51 0.49 0.49 0.53 0.55 0.56 0.62 0.65
0.17 0.22 0.22 0.21 0.21 0.22 0.24 0.22 0.20 0.20 0.21 0.20 0.17 0.16 0.15 0.15 0.15 0.15 0.16 0.16 0.16 0.16 0.18 0.25 0.39 0.44 0.47 0.53 0.53 0.51 0.44 0.37 0.36 0.37 0.37 0.38 0.39 0.41 0.42 0.45 0.46 0.46 0.52
0.18 0.21 0.23 0.24 0.23 0.22 0.22 0.21 0.21 0.20 0.20 0.21 0.21 0.20 0.20 0.19 0.17 0.17 0.17 0.16 0.16 0.17 0.20 0.26 0.31 0.34 0.35 0.34 0.35 0.35 0.34 0.36 0.35 0.35 0.35 0.36 0.37 0.38 0.37 0.36 0.40 0.43 0.44
0.17 0.20 0.21 0.22 0.23 0.24 0.23 0.24 0.25 0.24 0.25 0.25 0.23 0.25 0.26 0.23 0.20 0.19 0.19 0.19 0.20 0.21 0.21 0.22 0.24 0.25 0.25 0.26 0.28 0.31 0.33 0.36 0.38 0.38 0.37 0.39 0.41 0.42 0.41 0.39 0.38 0.39 0.40
0.16 0.18 0.21 0.22 0.22 0.22 0.25 0.25 0.27 0.28 0.29 0.30 0.31 0.33 0.32 0.28 0.26 0.26 0.25 0.24 0.24 0.24 0.24 0.23 0.22 0.23 0.25 0.27 0.31 0.32 0.33 0.37 0.39 0.40 0.42 0.44 0.45 0.45 0.45 0.43 0.41 0.41 0.42
0.21 0.21 0.19 0.20 0.22 0.23 0.24 0.23 0.23 0.23 0.27 0.31 0.34 0.37 0.37 0.32 0.30 0.31 0.30 0.28 0.26 0.26 0.26 0.26 0.26 0.26 0.29 0.31 0.35 0.37 0.39 0.42 0.45 0.47 0.49 0.49 0.51 0.50 0.48 0.48 0.49 0.50 0.49
0.19 0.21 0.21 0.20 0.20 0.23 0.23 0.22 0.24 0.25 0.28 0.31 0.31 0.32 0.32 0.32 0.32 0.32 0.32 0.31 0.31 0.31 0.31 0.31 0.30 0.30 0.32 0.35 0.39 0.42 0.44 0.46 0.53 0.60 0.63 0.62 0.60 0.59 0.57 0.55 0.54 0.56 0.56
0.15 0.17 0.19 0.21 0.22 0.21 0.20 0.20 0.22 0.25 0.26 0.28 0.29 0.30 0.32 0.32 0.33 0.33 0.33 0.32 0.32 0.32 0.33 0.35 0.35 0.34 0.35 0.38 0.41 0.46 0.49 0.52 0.56 0.62 0.69 0.71 0.67 0.62 0.60 0.57 0.54 0.55 0.59
0.15 0.17 0.19 0.22 0.24 0.24 0.22 0.22 0.23 0.24 0.24 0.26 0.27 0.28 0.29 0.30 0.31 0.33 0.35 0.34 0.33 0.33 0.34 0.37 0.40 0.40 0.40 0.41 0.43 0.47 0.54 0.56 0.55 0.57 0.62 0.68 0.67 0.65 0.63 0.62 0.61 0.60 0.63
0.14 0.16 0.19 0.22 0.23 0.24 0.25 0.25 0.25 0.26 0.27 0.27 0.29 0.31 0.31 0.31 0.31 0.31 0.33 0.33 0.33 0.32 0.32 0.34 0.35 0.36 0.37 0.37 0.39 0.45 0.51 0.49 0.50 0.54 0.58 0.63 0.69 0.69 0.70 0.72 0.71 0.71 0.70

GEFSGL_prec_meanprecacc_210.txt.gz
Total_Precipitation_Accumulation
1.04 1.13 1.17 0.97 0.71 0.59 0.57 0.54 0.50 0.52 0.58 0.65 0.60 0.59 0.64 0.69 0.66 0.75 0.86 0.96 1.08 1.19 1.20 1.25 1.33 1.34 1.45 1.51 1.62 1.69 1.73 1.69 1.46 1.29 1.17 1.18 1.19 1.18 1.15 1.07 1.13 1.16 1.05
0.95 0.91 0.75 0.58 0.47 0.42 0.38 0.32 0.28 0.27 0.28 0.35 0.37 0.37 0.45 0.58 0.58 0.65 0.69 0.71 0.82 0.93 0.99 1.04 1.08 1.10 1.22 1.31 1.38 1.47 1.60 1.63 1.52 1.35 1.24 1.18 1.08 1.10 1.26 1.30 1.28 1.20 1.20
0.60 0.59 0.51 0.41 0.37 0.33 0.27 0.26 0.23 0.22 0.22 0.26 0.28 0.31 0.34 0.43 0.55 0.60 0.62 0.61 0.62 0.64 0.68 0.74 0.80 0.88 1.05 1.14 1.17 1.27 1.42 1.46 1.54 1.43 1.36 1.29 1.13 1.07 1.24 1.27 1.33 1.49 1.41
0.38 0.38 0.36 0.32 0.30 0.29 0.28 0.29 0.24 0.20 0.21 0.20 0.19 0.20 0.27 0.38 0.46 0.55 0.59 0.56 0.55 0.57 0.59 0.60 0.63 0.67 0.78 0.90 1.00 1.19 1.36 1.48 1.53 1.46 1.45 1.41 1.33 1.23 1.30 1.40 1.46 1.56 1.60
0.26 0.26 0.30 0.29 0.26 0.23 0.25 0.24 0.22 0.20 0.17 0.12 0.10 0.13 0.20 0.25 0.30 0.44 0.49 0.50 0.54 0.52 0.54 0.59 0.60 0.58 0.60 0.65 0.65 0.84 1.07 1.30 1.39 1.45 1.47 1.50 1.45 1.41 1.36 1.49 1.56 1.67 1.77
0.15 0.14 0.19 0.22 0.20 0.21 0.21 0.19 0.18 0.18 0.17 0.12 0.09 0.10 0.11 0.12 0.20 0.26 0.35 0.45 0.51 0.57 0.58 0.61 0.58 0.55 0.59 0.59 0.58 0.60 0.72 0.89 1.07 1.19 1.27 1.33 1.39 1.49 1.61 1.62 1.58 1.64 1.70
0.13 0.13 0.15 0.17 0.14 0.13 0.12 0.11 0.09 0.11 0.12 0.10 0.08 0.10 0.10 0.10 0.09 0.11 0.24 0.40 0.52 0.56 0.54 0.67 0.73 0.67 0.65 0.68 0.71 0.64 0.59 0.60 0.76 0.97 1.10 1.15 1.22 1.31 1.55 1.59 1.60 1.64 1.56
0.13 0.12 0.12 0.13 0.12 0.11 0.12 0.10 0.08 0.08 0.10 0.10 0.11 0.13 0.10 0.06 0.06 0.07 0.13 0.29 0.44 0.49 0.49 0.63 0.87 0.90 0.79 0.73 0.77 0.87 0.79 0.64 0.63 0.70 0.87 1.00 1.05 1.21 1.53 1.75 1.70 1.49 1.45
0.16 0.13 0.12 0.12 0.13 0.13 0.12 0.11 0.09 0.11 0.12 0.10 0.10 0.11 0.10 0.08 0.07 0.08 0.12 0.23 0.34 0.39 0.42 0.55 0.71 0.85 0.78 0.73 0.73 0.81 0.85 0.74 0.68 0.70 0.67 0.75 0.89 1.06 1.32 1.59 1.70 1.65 1.49
0.14 0.14 0.14 0.12 0.11 0.13 0.12 0.12 0.12 0.14 0.15 0.13 0.11 0.09 0.08 0.07 0.07 0.08 0.10 0.17 0.22 0.22 0.29 0.45 0.60 0.58 0.54 0.60 0.72 0.83 0.92 0.77 0.67 0.76 0.75 0.77 0.81 0.99 1.32 1.53 1.66 1.65 1.53
0.15 0.19 0.20 0.17 0.16 0.19 0.19 0.16 0.14 0.14 0.16 0.15 0.15 0.12 0.12 0.10 0.09 0.10 0.12 0.14 0.18 0.17 0.23 0.37 0.44 0.40 0.39 0.48 0.59 0.71 0.85 0.72 0.73 0.88 0.92 0.90 0.97 1.02 1.14 1.29 1.49 1.61 1.53
0.18 0.21 0.23 0.23 0.23 0.24 0.24 0.21 0.19 0.18 0.19 0.20 0.21 0.19 0.18 0.17 0.14 0.13 0.14 0.17 0.19 0.20 0.25 0.30 0.33 0.30 0.31 0.36 0.40 0.51 0.62 0.70 0.78 0.92 0.99 0.95 0.92 0.98 1.04 1.08 1.19 1.31 1.31
0.22 0.23 0.24 0.25 0.25 0.24 0.24 0.23 0.20 0.17 0.18 0.21 0.22 0.21 0.22 0.21 0.18 0.16 0.16 0.16 0.19 0.20 0.23 0.27 0.28 0.30 0.33 0.33 0.35 0.42 0.57 0.76 0.93 0.93 0.86 0.83 0.87 0.92 0.93 1.05 1.13 1.17 1.20
0.25 0.26 0.24 0.23 0.23 0.24 0.24 0.23 0.20 0.18 0.17 0.19 0.21 0.21 0.21 0.22 0.16 0.15 0.18 0.18 0.19 0.21 0.24 0.25 0.25 0.30 0.33 0.33 0.38 0.50 0.66 0.87 0.95 0.87 0.82 0.72 0.73 0.86 0.91 0.93 0.97 0.99 1.05
0.25 0.25 0.25 0.22 0.20 0.20 0.21 0.22 0.23 0.21 0.22 0.23 0.25 0.26 0.21 0.19 0.22 0.23 0.21 0.19 0.18 0.18 0.22 0.28 0.32 0.38 0.43 0.50 0.61 0.70 0.72 0.76 0.81 0.74 0.78 0.71 0.66 0.73 0.77 0.78 0.80 0.76 0.77
0.22 0.22 0.22 0.22 0.20 0.19 0.20 0.22 0.27 0.30 0.32 0.26 0.24 0.23 0.22 0.20 0.23 0.20 0.20 0.21 0.19 0.20 0.26 0.34 0.42 0.49 0.56 0.64 0.70 0.70 0.69 0.71 0.74 0.70 0.69 0.68 0.62 0.63 0.65 0.66 0.70 0.73 0.76
0.17 0.18 0.19 0.21 0.21 0.21 0.22 0.23 0.24 0.24 0.25 0.22 0.20 0.19 0.19 0.20 0.18 0.18 0.18 0.19 0.19 0.21 0.24 0.34 0.54 0.60 0.58 0.63 0.67 0.66 0.58 0.52 0.53 0.55 0.54 0.52 0.51 0.51 0.55 0.57 0.59 0.64 0.67
0.20 0.24 0.25 0.24 0.24 0.25 0.26 0.24 0.22 0.22 0.24 0.22 0.19 0.17 0.17 0.17 0.17 0.16 0.17 0.18 0.18 0.18 0.20 0.27 0.40 0.45 0.48 0.54 0.54 0.52 0.46 0.39 0.39 0.39 0.38 0.40 0.41 0.43 0.44 0.48 0.48 0.48 0.54
0.20 0.23 0.25 0.26 0.27 0.26 0.25 0.24 0.23 0.22 0.23 0.25 0.23 0.21 0.22 0.20 0.19 0.19 0.18 0.17 0.18 0.20 0.22 0.28 0.32 0.36 0.37 0.36 0.37 0.37 0.36 0.37 0.38 0.38 0.38 0.38 0.39 0.40 0.40 0.39 0.42 0.46 0.47
0.21 0.23 0.23 0.24 0.26 0.26 0.25 0.25 0.27 0.27 0.28 0.29 0.26 0.27 0.27 0.24 0.21 0.20 0.20 0.21 0.22 0.23 0.23 0.24 0.26 0.26 0.26 0.28 0.29 0.32 0.34 0.37 0.38 0.39 0.39 0.41 0.43 0.44 0.44 0.42 0.42 0.42 0.44
0.19 0.21 0.23 0.24 0.24 0.25 0.27 0.28 0.30 0.31 0.32 0.34 0.35 0.37 0.34 0.29 0.28 0.28 0.27 0.26 0.26 0.26 0.25 0.24 0.24 0.25 0.27 0.29 0.32 0.33 0.34 0.37 0.40 0.41 0.43 0.45 0.47 0.48 0.47 0.46 0.45 0.44 0.45
0.24 0.23 0.22 0.23 0.25 0.25 0.26 0.27 0.26 0.26 0.29 0.34 0.38 0.41 0.39 0.33 0.32 0.33 0.32 0.30 0.27 0.27 0.27 0.27 0.27 0.28 0.30 0.33 0.36 0.38 0.40 0.43 0.47 0.49 0.51 0.52 0.53 0.53 0.51 0.51 0.51 0.52 0.52
0.22 0.24 0.25 0.25 0.23 0.26 0.27 0.25 0.26 0.27 0.30 0.33 0.34 0.35 0.34 0.33 0.33 0.33 0.33 0.32 0.32 0.31 0.32 0.32 0.32 0.32 0.33 0.37 0.40 0.43 0.46 0.48 0.55 0.62 0.65 0.64 0.62 0.60 0.58 0.57 0.56 0.58 0.58
0.19 0.20 0.22 0.24 0.25 0.24 0.23 0.23 0.25 0.27 0.28 0.30 0.31 0.33 0.34 0.34 0.33 0.34 0.34 0.33 0.34 0.33 0.34 0.36 0.37 0.36 0.37 0.39 0.43 0.47 0.50 0.53 0.58 0.64 0.70 0.73 0.68 0.63 0.61 0.58 0.56 0.56 0.60
0.17 0.20 0.22 0.25 0.28 0.27 0.26 0.27 0.27 0.27 0.27 0.28 0.29 0.30 0.31 0.31 0.32 0.34 0.36 0.36 0.35 0.34 0.36 0.39 0.41 0.42 0.42 0.42 0.45 0.48 0.55 0.57 0.56 0.57 0.63 0.69 0.68 0.65 0.64 0.63 0.61 0.61 0.64
0.19 0.20 0.22 0.25 0.26 0.28 0.29 0.29 0.29 0.30 0.30 0.29 0.31 0.34 0.34 0.34 0.33 0.33 0.34 0.35 0.35 0.34 0.34 0.35 0.36 0.38 0.39 0.39 0.41 0.47 0.52 0.49 0.50 0.54 0.58 0.64 0.69 0.70 0.71 0.73 0.71 0.72 0.71

GEFSGL_prec_meanprecacc_216.txt.gz
Total_Precipitation_Accumulation
1.06 1.15 1.18 0.99 0.73 0.61 0.59 0.56 0.52 0.53 0.59 0.66 0.61 0.59 0.65 0.70 0.67 0.76 0.87 0.97 1.09 1.20 1.22 1.26 1.33 1.35 1.46 1.51 1.62 1.69 1.73 1.69 1.46 1.30 1.18 1.20 1.21 1.19 1.15 1.07 1.13 1.17 1.06
0.97 0.93 0.76 0.59 0.48 0.43 0.39 0.34 0.30 0.28 0.30 0.36 0.38 0.38 0.46 0.59 0.59 0.65 0.70 0.72 0.83 0.95 1.00 1.06 1.08 1.10 1.22 1.31 1.38 1.47 1.60 1.64 1.53 1.37 1.26 1.20 1.10 1.11 1.26 1.30 1.28 1.20 1.20
0.62 0.61 0.52 0.43 0.39 0.34 0.29 0.27 0.25 0.24 0.24 0.27 0.30 0.32 0.35 0.45 0.56 0.61 0.63 0.61 0.62 0.65 0.71 0.76 0.82 0.89 1.06 1.14 1.17 1.27 1.42 1.47 1.55 1.44 1.37 1.30 1.15 1.08 1.24 1.27 1.33 1.49 1.41
0.40 0.39 0.38 0.33 0.32 0.30 0.29 0.31 0.26 0.23 0.23 0.22 0.20 0.21 0.28 0.39 0.48 0.56 0.60 0.58 0.56 0.58 0.61 0.62 0.65 0.69 0.79 0.91 1.00 1.19 1.36 1.49 1.53 1.47 1.45 1.41 1.34 1.24 1.31 1.40 1.46 1.56 1.60
0.28 0.28 0.32 0.32 0.29 0.26 0.27 0.26 0.24 0.22 0.19 0.14 0.12 0.14 0.21 0.27 0.32 0.46 0.50 0.51 0.55 0.54 0.56 0.60 0.61 0.60 0.62 0.66 0.65 0.85 1.07 1.31 1.40 1.45 1.47 1.50 1.45 1.41 1.36 1.49 1.56 1.68 1.77
0.18 0.18 0.23 0.27 0.24 0.24 0.23 0.22 0.20 0.20 0.18 0.14 0.11 0.12 0.13 0.14 0.22 0.28 0.36 0.46 0.52 0.58 0.59 0.62 0.59 0.55 0.59 0.59 0.58 0.60 0.72 0.89 1.08 1.19 1.27 1.33 1.39 1.49 1.61 1.62 1.59 1.65 1.71
0.17 0.19 0.23 0.22 0.17 0.16 0.16 0.14 0.11 0.13 0.14 0.12 0.10 0.12 0.12 0.11 0.11 0.13 0.25 0.41 0.53 0.57 0.55 0.68 0.73 0.67 0.65 0.69 0.71 0.64 0.59 0.60 0.76 0.97 1.10 1.15 1.22 1.32 1.55 1.60 1.60 1.64 1.56
0.17 0.18 0.21 0.20 0.17 0.13 0.14 0.13 0.09 0.10 0.11 0.12 0.13 0.14 0.11 0.08 0.08 0.09 0.15 0.30 0.45 0.50 0.50 0.63 0.87 0.90 0.79 0.73 0.78 0.87 0.79 0.64 0.64 0.70 0.87 1.00 1.05 1.21 1.53 1.75 1.70 1.50 1.45
0.19 0.18 0.18 0.19 0.18 0.16 0.13 0.12 0.11 0.13 0.14 0.12 0.11 0.13 0.11 0.09 0.09 0.09 0.13 0.24 0.35 0.40 0.43 0.55 0.71 0.86 0.79 0.73 0.73 0.81 0.85 0.75 0.68 0.70 0.67 0.76 0.89 1.07 1.32 1.59 1.70 1.66 1.49
0.17 0.18 0.19 0.18 0.16 0.16 0.14 0.14 0.14 0.16 0.17 0.15 0.13 0.11 0.10 0.08 0.09 0.10 0.11 0.17 0.23 0.23 0.29 0.45 0.61 0.59 0.55 0.61 0.72 0.83 0.92 0.77 0.67 0.76 0.75 0.78 0.81 1.00 1.32 1.54 1.67 1.65 1.53
0.19 0.23 0.24 0.22 0.20 0.22 0.22 0.18 0.17 0.17 0.19 0.18 0.17 0.14 0.13 0.11 0.10 0.11 0.13 0.15 0.19 0.18 0.23 0.37 0.45 0.41 0.40 0.48 0.60 0.72 0.86 0.73 0.74 0.89 0.93 0.91 0.98 1.03 1.14 1.29 1.50 1.62 1.54
0.21 0.24 0.28 0.28 0.27 0.27 0.27 0.24 0.22 0.22 0.23 0.24 0.24 0.22 0.21 0.19 0.15 0.13 0.15 0.17 0.19 0.20 0.25 0.31 0.33 0.30 0.32 0.36 0.41 0.52 0.63 0.71 0.80 0.93 1.01 0.97 0.94 1.00 1.05 1.10 1.20 1.32 1.32
0.25 0.26 0.28 0.30 0.29 0.28 0.27 0.25 0.22 0.20 0.20 0.23 0.24 0.24 0.24 0.23 0.19 0.17 0.16 0.17 0.20 0.21 0.24 0.28 0.29 0.30 0.33 0.34 0.36 0.44 0.58 0.77 0.94 0.95 0.88 0.85 0.89 0.94 0.95 1.07 1.14 1.19 1.21
0.27 0.28 0.28 0.27 0.27 0.27 0.27 0.26 0.23 0.21 0.19 0.20 0.23 0.23 0.22 0.23 0.18 0.17 0.19 0.19 0.20 0.22 0.25 0.26 0.26 0.31 0.34 0.33 0.39 0.52 0.68 0.88 0.97 0.89 0.83 0.73 0.74 0.87 0.92 0.94 0.98 1.00 1.06
0.26 0.27 0.27 0.25 0.23 0.23 0.23 0.24 0.25 0.24 0.24 0.25 0.27 0.27 0.22 0.21 0.24 0.24 0.22 0.21 0.19 0.18 0.23 0.29 0.33 0.39 0.44 0.52 0.62 0.70 0.72 0.76 0.82 0.75 0.79 0.72 0.67 0.74 0.78 0.79 0.81 0.78 0.79
0.23 0.24 0.24 0.25 0.23 0.21 0.22 0.24 0.30 0.33 0.34 0.28 0.26 0.24 0.23 0.21 0.25 0.22 0.22 0.22 0.20 0.21 0.26 0.34 0.42 0.50 0.57 0.65 0.71 0.71 0.70 0.71 0.74 0.72 0.70 0.69 0.63 0.63 0.65 0.67 0.71 0.74 0.78
0.18 0.20 0.21 0.22 0.23 0.23 0.25 0.26 0.27 0.27 0.28 0.25 0.22 0.21 0.20 0.21 0.20 0.19 0.20 0.21 0.21 0.22 0.25 0.35 0.55 0.61 0.59 0.64 0.69 0.68 0.60 0.54 0.55 0.56 0.55 0.53 0.51 0.52 0.56 0.58 0.60 0.66 0.68
0.21 0.26 0.27 0.26 0.26 0.27 0.29 0.27 0.24 0.24 0.25 0.24 0.21 0.19 0.18 0.18 0.18 0.17 0.18 0.19 0.19 0.19 0.20 0.28 0.41 0.46 0.50 0.56 0.57 0.55 0.49 0.42 0.41 0.40 0.39 0.40 0.42 0.44 0.45 0.49 0.50 0.50 0.56
0.21 0.24 0.27 0.29 0.29 0.28 0.27 0.26 0.26 0.24 0.24 0.26 0.25 0.23 0.24 0.22 0.21 0.20 0.19 0.18 0.18 0.20 0.23 0.29 0.34 0.38 0.39 0.39 0.40 0.40 0.39 0.40 0.40 0.39 0.39 0.40 0.40 0.42 0.41 0.41 0.44 0.48 0.49
0.22 0.25 0.25 0.27 0.28 0.28 0.27 0.28 0.30 0.30 0.30 0.30 0.27 0.28 0.28 0.25 0.23 0.21 0.21 0.22 0.23 0.24 0.24 0.25 0.27 0.27 0.28 0.29 0.31 0.34 0.36 0.39 0.40 0.41 0.40 0.42 0.44 0.45 0.45 0.43 0.43 0.44 0.46
0.21 0.24 0.27 0.27 0.26 0.26 0.29 0.30 0.33 0.34 0.35 0.35 0.36 0.39 0.36 0.31 0.29 0.29 0.28 0.27 0.27 0.27 0.26 0.25 0.25 0.26 0.28 0.30 0.34 0.35 0.35 0.38 0.41 0.42 0.44 0.45 0.48 0.49 0.48 0.48 0.46 0.46 0.47
0.26 0.25 0.26 0.26 0.27 0.27 0.28 0.28 0.29 0.29 0.32 0.37 0.40 0.43 0.42 0.35 0.33 0.34 0.33 0.31 0.28 0.28 0.28 0.28 0.28 0.29 0.32 0.34 0.37 0.39 0.40 0.43 0.48 0.50 0.52 0.52 0.54 0.54 0.53 0.53 0.53 0.53 0.53
0.24 0.26 0.27 0.27 0.25 0.28 0.29 0.26 0.28 0.29 0.32 0.36 0.37 0.38 0.37 0.35 0.35 0.34 0.34 0.33 0.33 0.33 0.33 0.33 0.33 0.33 0.34 0.38 0.41 0.44 0.46 0.48 0.56 0.63 0.66 0.65 0.63 0.62 0.60 0.59 0.58 0.60 0.59
0.21 0.23 0.24 0.26 0.27 0.26 0.25 0.25 0.26 0.28 0.30 0.33 0.35 0.36 0.36 0.36 0.35 0.35 0.36 0.35 0.35 0.34 0.35 0.37 0.37 0.37 0.38 0.40 0.44 0.48 0.51 0.54 0.59 0.65 0.72 0.74 0.70 0.65 0.63 0.60 0.57 0.57 0.61
0.19 0.22 0.24 0.27 0.29 0.28 0.28 0.29 0.29 0.29 0.29 0.30 0.31 0.33 0.33 0.33 0.34 0.36 0.37 0.37 0.36 0.35 0.36 0.40 0.42 0.43 0.42 0.43 0.45 0.48 0.56 0.58 0.57 0.58 0.64 0.70 0.69 0.67 0.66 0.65 0.63 0.63 0.66
0.21 0.23 0.25 0.27 0.28 0.29 0.30 0.30 0.31 0.32 0.32 0.32 0.35 0.37 0.37 0.37 0.36 0.35 0.36 0.37 0.37 0.36 0.35 0.36 0.37 0.38 0.39 0.40 0.42 0.48 0.53 0.50 0.51 0.55 0.58 0.64 0.70 0.71 0.72 0.74 0.73 0.74 0.74

GEFSGL_prec_meanprecacc_222.txt.gz
Total_Precipitation_Accumulation
1.07 1.15 1.19 1.00 0.75 0.62 0.60 0.57 0.53 0.55 0.60 0.67 0.62 0.60 0.65 0.70 0.67 0.77 0.88 0.98 1.10 1.22 1.23 1.28 1.35 1.36 1.48 1.52 1.63 1.71 1.74 1.70 1.48 1.30 1.19 1.20 1.21 1.19 1.16 1.08 1.13 1.17 1.06
0.98 0.94 0.77 0.61 0.50 0.45 0.40 0.35 0.31 0.30 0.31 0.38 0.39 0.38 0.46 0.59 0.59 0.66 0.71 0.73 0.84 0.96 1.02 1.08 1.09 1.10 1.22 1.31 1.39 1.48 1.61 1.65 1.53 1.37 1.26 1.20 1.10 1.11 1.26 1.31 1.29 1.20 1.20
0.62 0.62 0.54 0.44 0.40 0.35 0.30 0.29 0.26 0.25 0.25 0.29 0.31 0.33 0.35 0.45 0.57 0.61 0.63 0.62 0.63 0.67 0.72 0.77 0.83 0.90 1.06 1.14 1.17 1.27 1.42 1.47 1.56 1.44 1.37 1.30 1.15 1.08 1.24 1.27 1.33 1.50 1.41
0.40 0.41 0.39 0.35 0.33 0.31 0.31 0.32 0.27 0.24 0.25 0.23 0.21 0.22 0.29 0.40 0.49 0.57 0.60 0.58 0.57 0.59 0.62 0.63 0.65 0.69 0.80 0.92 1.01 1.20 1.36 1.49 1.54 1.47 1.45 1.42 1.34 1.24 1.31 1.40 1.47 1.57 1.60
0.29 0.29 0.34 0.34 0.32 0.28 0.28 0.27 0.26 0.23 0.21 0.16 0.14 0.15 0.22 0.27 0.33 0.46 0.50 0.52 0.56 0.55 0.57 0.61 0.62 0.60 0.62 0.66 0.66 0.85 1.08 1.31 1.41 1.46 1.48 1.51 1.46 1.41 1.36 1.49 1.56 1.68 1.77
0.20 0.20 0.26 0.31 0.28 0.27 0.25 0.23 0.21 0.21 0.20 0.16 0.13 0.14 0.14 0.14 0.23 0.29 0.37 0.47 0.53 0.59 0.60 0.62 0.60 0.56 0.61 0.60 0.59 0.61 0.73 0.90 1.08 1.20 1.28 1.34 1.39 1.50 1.61 1.62 1.59 1.65 1.71
0.18 0.20 0.26 0.27 0.22 0.19 0.18 0.16 0.13 0.14 0.15 0.14 0.12 0.14 0.13 0.12 0.12 0.14 0.26 0.42 0.54 0.58 0.56 0.69 0.74 0.68 0.66 0.69 0.71 0.65 0.59 0.61 0.77 0.98 1.11 1.16 1.23 1.32 1.55 1.60 1.61 1.64 1.56
0.18 0.20 0.24 0.25 0.23 0.18 0.17 0.14 0.11 0.10 0.12 0.13 0.15 0.16 0.13 0.10 0.09 0.10 0.16 0.32 0.46 0.51 0.51 0.64 0.88 0.91 0.79 0.74 0.78 0.88 0.79 0.64 0.64 0.70 0.87 1.01 1.06 1.21 1.53 1.75 1.70 1.50 1.46
0.21 0.20 0.20 0.22 0.22 0.20 0.17 0.15 0.12 0.14 0.15 0.13 0.13 0.14 0.14 0.11 0.10 0.10 0.14 0.25 0.37 0.41 0.43 0.56 0.72 0.86 0.80 0.74 0.73 0.81 0.85 0.75 0.69 0.71 0.68 0.76 0.89 1.07 1.33 1.59 1.70 1.66 1.50
0.20 0.21 0.21 0.20 0.18 0.19 0.18 0.17 0.16 0.18 0.18 0.16 0.15 0.12 0.11 0.10 0.10 0.11 0.12 0.19 0.25 0.24 0.30 0.46 0.62 0.60 0.56 0.62 0.73 0.84 0.93 0.78 0.68 0.77 0.77 0.79 0.82 1.01 1.33 1.54 1.67 1.66 1.55
0.22 0.26 0.27 0.24 0.22 0.25 0.25 0.23 0.20 0.20 0.21 0.21 0.19 0.16 0.14 0.13 0.13 0.12 0.14 0.16 0.21 0.20 0.24 0.38 0.45 0.42 0.41 0.49 0.60 0.72 0.87 0.73 0.75 0.89 0.94 0.92 0.99 1.04 1.15 1.31 1.51 1.63 1.55
0.25 0.28 0.30 0.31 0.30 0.30 0.30 0.28 0.27 0.25 0.26 0.26 0.26 0.23 0.22 0.20 0.17 0.15 0.17 0.19 0.21 0.23 0.28 0.33 0.34 0.31 0.32 0.36 0.41 0.52 0.64 0.72 0.81 0.94 1.02 0.99 0.96 1.02 1.07 1.11 1.22 1.33 1.33
0.27 0.28 0.30 0.33 0.32 0.30 0.29 0.29 0.28 0.24 0.24 0.25 0.26 0.25 0.26 0.24 0.21 0.18 0.18 0.18 0.21 0.22 0.25 0.30 0.31 0.31 0.33 0.34 0.36 0.44 0.58 0.77 0.95 0.96 0.89 0.86 0.91 0.96 0.96 1.08 1.15 1.19 1.22
0.29 0.30 0.30 0.30 0.29 0.29 0.29 0.28 0.26 0.25 0.23 0.24 0.26 0.25 0.24 0.25 0.20 0.19 0.21 0.21 0.21 0.23 0.26 0.28 0.29 0.32 0.34 0.34 0.40 0.52 0.68 0.89 0.98 0.90 0.84 0.74 0.75 0.88 0.93 0.94 0.98 1.00 1.06
0.30 0.31 0.30 0.28 0.24 0.24 0.24 0.26 0.26 0.26 0.27 0.29 0.29 0.29 0.24 0.22 0.25 0.25 0.24 0.22 0.21 0.20 0.24 0.30 0.34 0.40 0.45 0.52 0.62 0.71 0.74 0.78 0.84 0.76 0.81 0.74 0.68 0.75 0.79 0.79 0.81 0.78 0.79
0.27 0.27 0.27 0.27 0.24 0.22 0.23 0.25 0.30 0.34 0.36 0.30 0.29 0.27 0.25 0.23 0.26 0.23 0.23 0.24 0.23 0.23 0.28 0.35 0.43 0.51 0.57 0.66 0.72 0.72 0.71 0.73 0.76 0.73 0.72 0.71 0.65 0.64 0.66 0.68 0.71 0.75 0.78
0.25 0.24 0.23 0.24 0.24 0.24 0.26 0.27 0.28 0.28 0.29 0.26 0.24 0.24 0.23 0.23 0.22 0.21 0.22 0.23 0.23 0.24 0.26 0.36 0.56 0.62 0.60 0.65 0.70 0.69 0.61 0.55 0.57 0.58 0.57 0.54 0.52 0.53 0.57 0.59 0.61 0.66 0.68
0.27 0.31 0.29 0.28 0.28 0.28 0.30 0.28 0.26 0.25 0.27 0.25 0.22 0.21 0.21 0.20 0.20 0.20 0.21 0.21 0.21 0.21 0.21 0.29 0.42 0.47 0.51 0.57 0.58 0.56 0.50 0.44 0.43 0.42 0.41 0.42 0.43 0.45 0.46 0.50 0.51 0.51 0.56
0.24 0.27 0.29 0.30 0.30 0.29 0.28 0.27 0.27 0.26 0.26 0.28 0.27 0.25 0.27 0.25 0.24 0.23 0.22 0.19 0.19 0.22 0.24 0.29 0.34 0.38 0.39 0.39 0.40 0.41 0.40 0.41 0.41 0.41 0.40 0.41 0.42 0.43 0.42 0.41 0.45 0.49 0.49
0.23 0.27 0.27 0.28 0.29 0.29 0.28 0.29 0.31 0.31 0.31 0.31 0.29 0.30 0.31 0.28 0.25 0.24 0.23 0.23 0.24 0.25 0.25 0.26 0.27 0.28 0.28 0.29 0.31 0.35 0.37 0.40 0.41 0.41 0.41 0.43 0.45 0.46 0.45 0.44 0.44 0.45 0.47
0.23 0.25 0.30 0.30 0.28 0.28 0.30 0.31 0.34 0.36 0.36 0.37 0.38 0.40 0.39 0.33 0.31 0.31 0.30 0.29 0.28 0.28 0.27 0.25 0.25 0.27 0.28 0.31 0.34 0.35 0.36 0.39 0.42 0.43 0.45 0.47 0.49 0.50 0.50 0.49 0.47 0.47 0.48
0.27 0.27 0.27 0.29 0.29 0.28 0.30 0.30 0.30 0.30 0.34 0.38 0.41 0.45 0.44 0.38 0.35 0.36 0.35 0.32 0.29 0.28 0.29 0.28 0.28 0.30 0.32 0.35 0.38 0.40 0.41 0.45 0.49 0.51 0.53 0.54 0.56 0.56 0.54 0.54 0.54 0.54 0.54
0.25 0.28 0.29 0.29 0.27 0.30 0.31 0.28 0.29 0.30 0.34 0.37 0.39 0.40 0.39 0.38 0.37 0.36 0.35 0.35 0.34 0.33 0.34 0.34 0.33 0.33 0.35 0.38 0.42 0.45 0.47 0.49 0.57 0.64 0.68 0.67 0.65 0.64 0.62 0.60 0.59 0.62 0.62
0.22 0.24 0.26 0.28 0.29 0.28 0.26 0.26 0.28 0.30 0.31 0.34 0.36 0.38 0.39 0.39 0.38 0.37 0.37 0.36 0.36 0.35 0.36 0.38 0.38 0.37 0.38 0.41 0.45 0.49 0.52 0.55 0.60 0.66 0.72 0.75 0.71 0.66 0.65 0.62 0.60 0.61 0.65
0.20 0.23 0.25 0.28 0.30 0.30 0.29 0.30 0.30 0.30 0.30 0.32 0.33 0.34 0.36 0.36 0.36 0.38 0.39 0.38 0.37 0.36 0.37 0.41 0.43 0.44 0.44 0.44 0.47 0.50 0.57 0.59 0.58 0.59 0.65 0.70 0.70 0.68 0.67 0.66 0.65 0.65 0.68
0.22 0.24 0.27 0.28 0.29 0.30 0.31 0.32 0.32 0.33 0.34 0.33 0.36 0.39 0.39 0.39 0.38 0.38 0.38 0.38 0.38 0.37 0.36 0.37 0.38 0.39 0.41 0.42 0.44 0.50 0.55 0.52 0.52 0.56 0.59 0.65 0.70 0.71 0.73 0.75 0.74 0.75 0.75